sat.trackr.live / text

‹ back to catalog

STARLINK-2088

NORAD 47371 · 2021-005Y

PAYLOAD ACTIVE UNKNOWN

§ Identity

Operator
Country
US
Launch date
2021-01-20
Launch site
AFETR
Launch vehicle
Mass (kg)
RCS (m²)

Purposes: comms

External: N2YO · Heavens-Above · Gunter

§ Orbital elements

Epoch: 2026-09-12T08:36:05.823072Z

Period
94.01 min
Inclination
53.1579°
Eccentricity
0.0001271
Mean motion
15.31711742 rev/d
Perigee alt
469.8 km
Apogee alt
471.6 km
Semi-major
6,848.8 km
B*
1.2241e-4
RAAN
277.6394°
Arg perigee
89.5843°
Mean anomaly
270.5304°
Rev number
31,157

§ Raw data

STARLINK-20881 47371U 21005Y   26255.35840073  .00003436  00000+0  12241-3 0  99982 47371  53.1579 277.6394 0001271  89.5843 270.5304 15.31711742311570

JSON: /api/v1/satellites/47371 · /tle

For live sub-satellite position, see the globe view (requires WebGL).

§ Visibility from observer

Set your observer location to see the next 7 days of passes ≥ 10°. The values pass through the URL so the page stays shareable.

No JS? Fill the form by hand. The geolocation button needs JavaScript.